Location: Chimay
(50.0486°N, 4.3171°E)
Time: 06:28:29
(UTC+00:00)

Cosmos 1934 Rocket - Pass Details

Date: 08 August 2020
Orbit: 937 x 1000 km, 83.0° (Epoch: 23 September)

Event Time Altitude Azimuth Distance (km) Brightness Sun altitude
Exits shadow 21:16:20 - 198° (SSW) 3,543 6.6 -16.1°
Reaches altitude 10° 21:18:27 10° 201° (SSW) 2,761 6.1 -16.4°
Maximum altitude 21:24:46 64° 283° (WNW) 1,101 4.4 -17.0°
Drops below altitude 10° 21:31:07 10° 5° (N) 2,780 7.1 -17.6°
Sets 21:33:42 0° 9° (N) 3,729 7.8 -17.8°
